Wetbulb
62.77 63.25 61.73 61.19 61.48 61.14 59.83 58.85 56.22 52.07 52.47 55.88 54.39 56.52 50.51 49.18 48.36 45.85 44.28 41.88 41.52 41.85 42.31 42.70 43.33 42.37 41.77 41.40 41.81 42.46 43.43 42.86 42.40 42.80 43.40 43.68 44.17 44.96
62.02 62.03 62.02 60.67 60.32 60.48 59.75 59.21 58.69 56.12 52.70 56.06 53.90 49.28 47.64 44.98 44.83 42.92 41.37 39.39 39.02 39.28 40.01 39.50 38.67 38.50 37.84 37.27 36.99 36.90 37.04 37.50 38.11 39.02 38.94 39.37 39.91 40.31
60.74 60.82 60.01 59.38 58.55 58.62 58.50 57.50 56.89 56.41 52.38 53.87 49.87 45.22 42.58 41.33 40.24 41.69 40.27 37.19 35.69 36.21 37.69 36.49 35.17 34.22 33.61 33.27 32.82 32.87 33.41 33.87 35.07 36.49 35.98 36.06 36.18 36.77
58.74 58.17 57.79 57.39 57.59 57.08 56.95 57.05 55.50 55.86 53.58 52.21 45.97 39.14 38.39 38.23 36.66 35.95 38.55 37.42 34.66 33.08 32.52 34.06 33.27 32.23 31.12 30.53 30.25 30.83 31.30 32.63 33.58 32.94 32.84 32.98 33.12 33.34
56.74 56.61 56.96 55.43 54.95 55.31 54.95 54.81 54.67 54.08 54.50 52.99 39.91 37.57 35.07 36.09 34.24 33.46 33.52 34.32 33.48 31.53 30.16 31.19 31.14 30.69 30.03 29.20 29.25 29.65 30.07 31.56 31.72 30.51 30.11 30.04 30.11 30.42
55.20 54.93 54.91 54.71 54.87 54.87 54.41 54.30 53.02 49.73 46.09 39.71 34.72 33.17 32.05 30.78 29.76 29.20 28.15 31.12 30.39 28.95 29.22 29.31 30.15 29.77 29.28 29.39 29.33 28.69 29.20 30.28 29.35 28.77 28.49 28.13 27.96 28.49
43.85 42.19 41.17 42.49 41.64 44.43 48.28 45.26 45.00 40.94 37.41 34.34 31.34 28.89 27.41 25.46 24.48 25.40 25.36 27.55 26.49 26.01 26.96 29.18 30.25 31.46 33.19 31.67 30.16 27.90 28.10 28.72 28.07 27.95 27.86 27.25 27.07 27.30
35.55 34.78 34.66 34.91 33.68 33.47 33.29 33.07 36.09 36.50 32.98 29.37 27.04 24.74 23.76 23.67 23.83 22.62 23.58 24.75 24.50 26.78 25.89 29.04 31.39 31.77 31.71 30.70 27.74 27.07 26.91 27.69 27.53 27.38 27.01 26.75 26.53 26.35
34.18 32.81 31.55 31.55 30.52 29.20 29.15 28.62 28.21 28.50 28.87 27.97 23.88 22.46 21.59 22.86 23.31 22.54 23.47 25.39 24.56 24.68 25.11 26.26 29.85 27.81 28.70 27.81 27.80 27.13 26.81 26.67 26.85 26.58 26.50 26.16 25.92 25.80
32.25 31.48 29.88 28.90 28.90 27.35 25.23 23.73 23.20 23.75 24.26 23.86 22.03 21.86 22.52 23.57 23.73 24.13 23.90 24.94 27.39 28.20 24.86 21.88 25.26 23.47 25.78 27.16 27.57 27.26 26.61 26.66 26.50 26.38 25.99 26.06 25.81 25.29
30.21 30.06 29.40 28.40 29.40 29.73 25.32 23.14 22.66 23.01 25.15 25.10 24.52 23.87 23.55 23.42 24.07 24.13 22.96 25.20 24.06 25.65 25.09 22.43 24.90 24.60 26.20 27.29 28.75 27.13 26.70 26.57 26.24 26.31 26.70 26.14 25.73 25.48
27.86 28.09 28.57 27.37 27.03 26.34 23.76 22.42 19.55 19.44 19.52 19.57 19.78 20.95 21.41 21.46 22.93 24.52 23.90 21.84 22.13 23.22 23.63 20.98 22.56 22.92 20.68 26.42 26.88 27.42 27.60 27.61 27.44 27.18 26.56 26.27 26.01 26.42
26.51 26.27 26.84 26.93 26.20 25.44 24.45 22.43 20.45 21.29 20.58 20.45 20.48 20.44 21.78 22.33 22.15 22.47 23.30 23.24 21.88 21.93 21.55 21.71 20.87 21.37 21.07 21.40 24.45 27.00 27.97 28.25 28.14 28.52 27.34 27.23 26.24 25.93
25.33 25.70 25.46 25.59 24.83 24.04 23.15 23.06 22.43 21.81 21.86 20.38 20.39 20.41 20.76 21.82 23.05 23.60 23.19 23.23 23.33 20.54 22.04 21.56 20.80 20.19 19.44 19.08 19.93 25.12 26.93 27.80 28.44 27.88 28.49 27.77 27.00 26.83
24.29 24.71 24.72 24.18 23.72 22.46 22.52 22.28 21.66 21.92 21.48 20.40 20.32 20.76 20.89 21.67 22.43 22.02 23.31 22.70 22.90 22.09 22.39 21.77 21.05 20.74 20.28 19.46 20.24 22.51 22.84 26.65 28.46 27.88 27.72 26.70 27.10 28.34
22.51 20.67 19.99 20.20 19.59 20.11 20.89 21.64 22.21 22.85 21.13 20.87 19.64 20.85 21.79 20.76 19.82 20.56 20.37 21.00 22.26 22.58 23.35 23.04 21.93 21.09 19.84 21.45 21.82 22.30 25.73 23.93 27.43 26.92 26.16 27.84 29.64 30.73
18.51 19.39 19.96 19.87 20.17 20.19 20.24 20.87 21.78 21.52 18.93 19.46 19.11 19.09 18.44 18.92 19.13 20.63 20.18 20.74 20.37 19.99 20.62 22.62 23.31 23.64 24.00 22.66 21.88 24.72 24.52 25.30 26.71 25.32 25.88 26.81 29.41 30.51
22.68 21.95 20.75 21.65 21.08 19.92 18.89 17.83 18.24 17.51 17.63 18.15 18.30 18.38 18.83 18.43 19.62 20.12 20.55 20.26 19.34 19.24 19.78 20.68 21.15 21.94 23.34 25.56 22.24 22.28 23.98 24.14 24.39 25.18 27.35 27.16 27.85 31.88
20.99 19.66 18.67 18.30 18.34 18.54 17.89 16.60 15.61 17.00 17.84 18.55 18.39 17.84 18.67 18.52 19.56 18.90 19.22 18.47 18.11 18.41 19.79 20.95 20.54 18.95 16.87 17.68 22.93 21.50 20.56 21.49 22.14 24.74 26.62 28.43 29.42 31.41
21.00 20.24 18.95 19.46 19.41 18.18 17.47 17.15 17.28 18.00 18.16 18.22 17.55 16.64 17.58 18.64 18.70 17.93 18.49 15.86 16.02 17.86 18.52 20.47 19.75 17.24 14.64 15.05 15.36 20.46 22.92 23.23 22.80 23.04 24.25 28.27 31.68 30.39
20.04 19.88 20.23 19.79 19.37 19.07 18.99 18.93 18.35 17.52 17.22 17.01 16.70 16.32 16.95 18.12 17.00 17.06 17.65 14.26 14.28 17.34 16.46 17.28 18.78 16.89 19.82 21.41 20.02 22.05 24.97 26.18 26.19 24.67 26.11 27.06 26.26 28.10
19.74 19.24 19.07 18.88 18.57 18.44 18.01 16.96 16.86 17.27 17.12 17.32 17.21 17.26 17.16 17.96 17.24 16.31 16.58 15.91 16.51 16.20 16.77 18.68 20.18 20.58 20.64 19.28 19.11 20.24 23.54 27.08 28.94 28.97 28.31 27.84 26.54 23.55
18.75 18.27 18.20 17.77 17.54 17.74 18.03 17.87 17.29 16.97 16.17 15.87 16.75 16.36 15.37 16.27 16.27 17.18 16.61 16.44 16.23 15.55 16.41 16.34 18.80 20.89 20.16 20.52 19.75 21.12 22.40 25.18 26.58 26.82 30.00 29.83 28.69 28.26
MSLP
1012.78 1013.31 1013.74 1014.38 1015.06 1015.47 1016.00 1016.58 1016.95 1018.11 1019.13 1020.30 1021.42 1022.13 1023.04 1024.13 1024.33 1024.38 1025.25 1025.48 1025.16 1025.30 1025.41 1025.22 1025.40 1025.54 1025.57 1025.60 1025.45 1025.26 1024.94 1024.84 1024.80 1024.49 1024.18 1023.99 1023.68 1023.32
1012.50 1013.14 1013.64 1014.64 1015.39 1015.57 1016.11 1016.65 1017.03 1017.72 1019.04 1020.25 1021.67 1023.22 1023.85 1024.65 1024.93 1025.03 1025.41 1025.64 1026.14 1026.15 1026.16 1026.22 1026.47 1026.37 1026.19 1026.15 1025.98 1025.90 1025.94 1025.54 1025.13 1024.75 1024.43 1024.15 1023.96 1023.81
1012.16 1012.72 1013.37 1014.48 1014.85 1015.61 1016.29 1016.91 1017.40 1018.24 1019.56 1020.81 1022.02 1023.78 1024.32 1024.45 1025.33 1025.61 1025.55 1026.29 1026.85 1026.87 1026.94 1026.98 1026.78 1026.97 1026.94 1026.85 1026.61 1026.45 1026.11 1025.82 1025.42 1025.09 1025.02 1024.76 1024.24 1023.92
1011.57 1012.45 1013.18 1013.98 1014.62 1015.44 1016.00 1016.67 1017.62 1018.48 1019.25 1020.35 1022.10 1023.68 1024.46 1024.76 1026.00 1025.96 1026.19 1026.74 1027.26 1027.62 1027.63 1027.61 1027.34 1026.98 1027.08 1027.10 1026.74 1026.58 1026.34 1025.95 1025.73 1025.43 1025.47 1025.15 1024.79 1024.29
1011.15 1011.89 1012.76 1013.41 1014.37 1015.39 1016.07 1016.58 1017.22 1018.34 1019.09 1020.38 1021.94 1023.58 1025.15 1025.62 1026.47 1026.65 1027.02 1027.28 1027.61 1028.00 1027.75 1027.96 1027.80 1027.33 1027.06 1027.02 1026.69 1026.79 1026.57 1026.16 1026.05 1025.86 1025.62 1025.32 1024.90 1024.20
1010.77 1011.66 1012.65 1013.03 1013.79 1015.19 1015.97 1016.39 1017.19 1018.27 1019.32 1020.63 1022.42 1023.97 1025.28 1026.45 1026.84 1027.06 1027.49 1027.62 1027.68 1027.96 1027.86 1027.60 1027.69 1027.13 1027.02 1027.01 1026.67 1026.98 1026.73 1026.15 1025.96 1025.74 1025.40 1025.10 1024.83 1024.32
1011.33 1012.16 1012.98 1013.69 1014.48 1015.26 1016.09 1016.96 1017.74 1018.88 1020.09 1021.56 1023.00 1024.58 1025.82 1026.74 1027.10 1027.57 1027.60 1027.94 1028.10 1028.15 1027.61 1027.18 1026.99 1026.41 1026.30 1026.33 1026.38 1026.91 1026.82 1026.25 1025.86 1025.56 1025.08 1024.82 1024.31 1023.88
1012.49 1013.66 1014.64 1015.09 1015.96 1016.74 1017.50 1018.14 1018.62 1019.35 1020.79 1022.22 1023.95 1025.14 1026.46 1027.21 1027.72 1027.85 1027.82 1027.79 1027.75 1027.93 1027.69 1026.73 1026.75 1026.00 1026.20 1026.52 1026.83 1026.72 1026.40 1025.95 1025.76 1025.31 1024.93 1024.30 1024.07 1023.32
1013.49 1014.35 1015.62 1016.93 1017.18 1018.04 1019.15 1019.79 1020.76 1021.62 1022.06 1023.14 1024.64 1026.19 1027.20 1027.79 1027.99 1028.04 1027.83 1027.58 1027.68 1028.12 1028.00 1027.03 1026.82 1026.75 1026.75 1026.64 1026.55 1026.31 1026.04 1025.77 1025.32 1024.86 1024.32 1023.79 1023.28 1022.73
1015.11 1015.70 1015.86 1017.57 1018.49 1018.76 1019.95 1021.23 1022.61 1023.62 1024.58 1025.22 1026.15 1027.22 1027.80 1028.09 1028.28 1028.15 1028.20 1027.88 1027.59 1027.86 1028.56 1027.99 1027.55 1027.27 1026.95 1026.40 1025.89 1025.82 1025.71 1025.25 1024.89 1024.28 1023.76 1023.12 1022.68 1022.18
1016.75 1016.97 1017.26 1018.30 1019.68 1019.79 1020.49 1022.14 1024.02 1025.42 1026.37 1026.84 1027.34 1027.97 1028.73 1028.77 1028.57 1028.35 1028.17 1027.89 1027.97 1028.11 1028.84 1028.54 1027.71 1027.29 1026.74 1025.85 1025.61 1025.56 1025.26 1024.89 1024.35 1023.79 1023.27 1022.65 1022.05 1021.59
1017.73 1018.33 1019.08 1019.81 1020.73 1021.41 1021.90 1023.14 1024.67 1026.66 1027.29 1027.78 1028.25 1028.81 1029.18 1029.40 1029.06 1028.78 1028.92 1028.62 1028.48 1028.26 1029.14 1028.98 1028.00 1027.65 1026.86 1025.75 1025.78 1025.19 1024.78 1024.17 1023.76 1023.27 1022.85 1022.41 1021.79 1021.04
1018.31 1019.54 1020.58 1021.09 1021.53 1022.41 1023.17 1024.33 1025.32 1026.53 1027.32 1028.02 1028.48 1028.76 1028.87 1029.39 1029.63 1029.77 1029.65 1029.35 1029.48 1029.19 1029.83 1029.36 1028.73 1028.21 1027.53 1026.40 1025.68 1024.92 1024.33 1023.60 1023.19 1022.60 1021.93 1021.47 1021.19 1020.88
1018.94 1020.66 1021.86 1022.45 1022.98 1023.83 1024.71 1025.47 1026.18 1026.92 1027.58 1028.30 1028.87 1029.00 1028.89 1029.11 1029.43 1029.90 1030.28 1030.11 1029.85 1030.17 1029.93 1029.83 1029.21 1028.68 1027.96 1027.27 1025.82 1024.66 1024.18 1023.65 1022.87 1022.18 1021.40 1020.74 1020.24 1019.56
1020.11 1021.42 1022.52 1023.64 1024.37 1025.22 1025.85 1026.57 1026.99 1027.28 1027.79 1028.04 1028.46 1029.14 1029.53 1029.75 1029.95 1030.26 1030.14 1029.91 1029.81 1030.22 1029.94 1029.46 1029.28 1028.79 1028.52 1027.34 1026.22 1025.05 1024.10 1022.92 1022.52 1021.89 1021.34 1020.86 1019.87 1018.69
1021.81 1023.12 1024.09 1024.86 1025.65 1026.40 1027.11 1027.49 1027.70 1027.78 1028.06 1028.58 1029.20 1029.72 1029.82 1030.01 1030.28 1030.31 1030.16 1029.87 1029.44 1029.37 1029.21 1029.14 1029.04 1028.65 1027.87 1027.15 1026.30 1024.98 1023.82 1023.16 1022.62 1022.22 1021.65 1020.46 1019.18 1018.05
1022.44 1023.75 1024.97 1025.53 1026.04 1026.73 1027.48 1027.77 1028.36 1028.75 1029.13 1029.49 1029.76 1030.24 1030.24 1030.34 1030.51 1030.51 1030.45 1030.04 1029.31 1029.09 1028.77 1028.39 1028.37 1027.71 1027.06 1026.43 1025.71 1024.69 1023.96 1023.20 1022.76 1022.40 1021.36 1019.97 1018.53 1017.52
1022.99 1023.83 1025.06 1025.93 1026.26 1026.85 1027.75 1028.63 1029.29 1029.69 1030.12 1030.42 1030.51 1030.74 1030.58 1030.84 1030.88 1030.87 1030.62 1030.17 1029.64 1029.04 1028.73 1028.42 1028.01 1027.14 1026.18 1025.35 1025.71 1025.01 1024.50 1023.87 1023.23 1022.31 1021.19 1019.89 1018.25 1017.14
1023.41 1024.53 1025.72 1026.65 1026.91 1027.58 1028.36 1029.25 1030.02 1030.64 1030.99 1031.08 1031.14 1031.37 1031.34 1031.48 1031.21 1031.00 1030.71 1030.38 1030.04 1029.72 1029.11 1028.70 1028.16 1027.81 1026.84 1025.90 1025.36 1025.72 1025.14 1024.50 1023.56 1022.33 1021.36 1019.85 1018.61 1017.26
1024.35 1025.14 1026.14 1027.09 1027.47 1028.40 1029.10 1029.75 1030.41 1031.02 1031.24 1031.51 1031.76 1032.06 1032.08 1031.76 1031.48 1031.36 1030.91 1030.99 1030.71 1029.87 1029.26 1028.78 1028.51 1028.70 1028.49 1027.84 1027.07 1025.44 1025.33 1024.40 1023.72 1022.70 1021.46 1020.28 1018.63 1017.30
1025.40 1026.00 1026.82 1027.35 1027.97 1029.20 1030.01 1030.53 1030.94 1031.33 1031.83 1032.09 1032.27 1032.41 1032.58 1032.10 1031.82 1031.59 1031.46 1031.45 1031.13 1030.25 1029.57 1029.02 1028.95 1029.36 1028.43 1027.60 1026.34 1024.80 1023.89 1023.79 1023.36 1022.66 1021.32 1020.11 1018.82 1017.42
1026.49 1027.16 1027.67 1028.43 1029.19 1029.94 1030.74 1031.52 1031.76 1031.93 1032.19 1032.35 1032.63 1032.72 1032.80 1032.43 1032.19 1031.95 1031.69 1031.44 1030.95 1030.66 1029.98 1029.37 1028.71 1028.18 1027.52 1026.97 1025.89 1024.93 1023.73 1022.84 1022.00 1021.20 1020.59 1020.54 1019.79 1018.73
1027.64 1028.28 1028.85 1029.21 1030.10 1030.79 1031.23 1031.63 1031.90 1032.23 1032.60 1032.91 1032.94 1032.90 1033.14 1032.86 1032.65 1032.20 1032.06 1031.62 1031.18 1030.81 1030.23 1029.60 1028.75 1027.97 1027.27 1026.47 1025.85 1024.85 1023.83 1022.59 1021.64 1020.83 1020.05 1019.66 1019.21 1018.74
Wind_Speed
14 14 12 10 9 8 7 8 8 6 5 4 3 8 7 7 6 11 12 18 20 19 18 18 17 17 17 16 16 14 14 14 15 16 16 18 19 21
11 16 14 10 8 6 6 7 6 4 4 3 3 5 6 8 10 12 13 18 19 17 16 17 16 15 15 15 15 16 15 15 14 14 16 17 19 21
16 17 16 14 9 8 6 6 6 5 3 2 4 5 4 9 8 6 10 9 10 17 15 14 15 15 15 14 14 14 15 15 14 14 17 18 19 20
18 17 16 11 13 9 7 10 7 5 5 8 3 4 5 10 8 9 6 7 7 13 12 10 10 11 12 13 14 15 16 14 12 15 16 18 19 21
17 18 17 16 11 7 8 8 7 5 6 4 3 4 4 4 6 7 6 7 6 7 7 8 7 8 11 13 12 15 15 14 13 16 17 18 21 23
16 16 13 12 13 12 9 9 6 6 4 6 6 5 5 7 5 4 4 3 4 4 5 4 3 5 5 10 9 13 13 12 14 16 20 22 23 25
10 11 10 14 14 8 5 5 8 6 7 7 6 5 4 3 4 1 2 2 3 4 4 1 2 3 4 8 9 13 14 13 16 20 22 22 24 25
15 16 15 23 26 28 29 27 13 9 9 5 4 7 7 6 3 2 2 1 2 5 5 2 3 6 7 8 14 13 13 15 19 23 22 24 25 26
14 15 15 13 20 20 29 32 31 29 17 10 13 7 7 3 4 5 4 3 3 5 6 3 7 7 8 9 14 14 14 19 23 23 25 26 28 29
13 12 18 15 15 19 20 21 20 18 16 12 14 11 9 7 6 5 3 1 4 7 9 3 6 7 9 8 11 14 19 24 24 25 26 29 29 29
13 14 17 18 24 27 22 22 20 18 23 27 25 23 19 17 9 5 6 4 3 3 5 5 5 8 7 7 7 16 21 22 23 24 27 27 28 29
15 17 26 20 25 24 19 18 18 13 13 14 12 14 13 13 13 10 6 5 4 0 6 6 6 8 5 6 10 9 11 15 20 21 21 21 23 15
13 12 12 26 26 25 21 14 16 14 14 11 10 9 9 9 7 7 5 5 4 3 6 5 5 6 5 9 8 11 10 13 12 13 17 21 24 20
16 13 17 28 29 28 20 26 23 14 9 9 8 8 8 7 6 6 6 5 4 4 5 5 4 6 8 11 11 11 11 11 10 10 13 17 23 23
15 25 32 30 29 22 25 21 14 10 10 10 9 8 7 6 6 4 4 5 3 2 4 6 6 8 8 9 11 12 13 11 7 13 13 13 13 14
23 16 16 18 19 17 13 12 9 8 9 9 8 6 6 5 5 5 5 5 3 3 4 5 7 8 8 8 9 11 10 8 11 11 13 12 11 11
17 12 11 11 12 11 10 10 9 9 9 8 7 6 6 5 5 5 5 5 5 6 5 5 7 9 8 11 8 8 9 10 11 12 14 12 12 12
12 12 12 10 11 11 10 9 8 9 8 7 7 5 5 6 4 4 4 5 6 6 7 7 8 9 8 3 4 7 8 10 11 13 12 12 12 12
12 11 10 9 10 10 10 9 8 7 7 6 6 5 4 4 3 4 5 6 6 6 7 7 8 8 10 8 5 4 8 12 13 13 13 12 12 12
11 12 11 10 10 10 9 9 8 7 6 6 6 5 3 4 4 5 5 6 7 7 7 6 6 7 8 8 9 10 20 10 11 12 12 12 11 16
10 11 10 10 10 9 8 7 7 7 5 5 4 4 3 3 4 4 5 6 8 6 8 7 8 8 8 8 9 10 10 15 11 12 12 11 11 11
10 10 10 10 9 9 8 7 7 6 5 4 4 3 3 3 4 5 5 6 7 7 8 8 8 7 7 7 10 13 11 12 13 11 13 10 6 8
10 9 9 9 8 7 6 6 5 5 4 3 3 3 3 3 4 4 5 5 6 7 8 9 8 7 7 7 10 10 15 12 9 9 9 5 11 12
Wind_Direction
192 192 196 199 198 186 171 171 166 153 172 143 111 65 71 66 99 101 86 69 68 66 67 67 68 62 57 50 43 34 32 26 11 4 1 355 351 348
192 194 193 178 172 139 145 151 144 136 162 167 97 98 93 96 87 93 90 76 67 67 71 67 61 57 51 43 36 26 11 3 359 1 359 355 351 341
195 195 187 174 146 140 130 126 122 122 146 117 99 106 84 93 78 79 88 85 66 55 58 63 58 47 39 31 24 13 5 357 354 360 356 351 345 337
191 189 182 165 155 154 150 165 159 174 168 198 129 108 91 78 85 71 71 90 84 61 48 44 50 54 38 21 15 8 2 356 3 358 349 341 338 333
190 192 177 164 155 166 178 177 170 174 202 210 116 90 77 93 89 74 57 91 76 58 50 33 31 32 25 12 11 2 357 352 1 352 341 332 324 322
182 178 173 168 179 192 194 195 175 150 110 102 82 96 97 75 77 76 82 63 79 25 8 359 348 346 25 351 11 360 351 353 351 335 329 326 324 321
97 89 84 83 83 80 135 123 130 105 105 103 98 99 94 91 78 57 94 160 87 29 356 292 300 328 2 339 5 352 342 337 331 329 327 325 321 317
105 91 88 86 81 80 76 66 64 116 118 106 95 106 97 106 95 96 105 145 132 55 339 343 345 352 355 339 343 338 321 319 328 330 325 323 318 318
101 106 96 90 90 89 79 74 67 66 66 97 106 97 105 97 113 96 64 65 79 46 360 329 8 347 342 325 334 324 322 326 326 325 323 323 322 320
85 96 101 98 98 100 92 82 74 69 70 79 85 88 93 89 84 74 58 152 141 93 23 346 344 339 325 316 314 328 328 325 323 325 323 322 322 316
86 88 94 100 107 105 100 98 94 89 85 89 90 89 82 74 70 77 59 64 56 52 41 335 344 335 323 303 322 332 324 321 320 317 319 320 317 315
92 88 93 101 102 101 102 107 101 106 109 99 89 83 84 73 56 54 47 47 44 99 51 333 346 353 324 287 322 324 317 315 317 321 311 310 315 314
100 99 99 104 101 100 101 104 109 112 105 98 96 82 73 69 64 64 54 40 15 25 53 340 330 345 311 314 320 317 327 324 324 317 318 318 319 314
106 102 103 104 102 99 96 104 106 107 105 96 90 92 87 78 68 55 41 24 33 344 331 342 307 325 316 318 316 324 327 322 324 323 325 326 321 318
103 110 107 102 99 95 101 102 101 104 106 107 102 91 80 74 68 53 45 27 48 319 311 320 315 318 315 303 305 320 320 329 329 334 336 329 321 320
102 97 97 95 94 99 94 90 92 100 104 101 97 96 90 75 60 31 13 11 347 347 342 338 311 310 303 297 306 306 324 337 330 342 329 324 323 331
115 108 102 105 107 104 102 103 103 97 90 90 96 91 77 66 50 29 14 349 352 350 343 340 329 315 298 284 294 313 336 329 346 335 328 330 334 340
110 107 113 113 111 112 109 103 95 93 96 98 87 80 69 56 34 30 10 2 348 345 339 347 339 340 332 241 239 321 327 339 337 326 328 328 327 338
101 102 103 115 116 113 110 105 103 97 98 90 83 69 60 62 15 20 9 4 356 341 339 338 342 350 338 335 323 347 324 332 322 325 328 336 326 334
107 114 117 120 112 109 114 112 112 108 97 89 82 71 46 37 24 12 11 360 351 336 332 337 347 354 332 325 318 301 300 299 318 313 316 314 318 304
109 110 114 110 107 109 107 105 104 95 95 95 86 70 43 19 27 8 355 356 323 339 331 338 341 317 287 291 291 309 323 306 311 294 301 311 333 324
108 106 105 105 108 111 109 115 122 119 114 104 83 65 34 9 7 354 354 337 342 336 328 326 326 319 315 312 314 316 317 325 311 298 270 264 325 329
106 107 106 105 105 110 118 111 106 105 96 92 61 53 25 353 352 344 330 329 334 333 335 326 326 321 320 318 318 317 310 321 328 329 317 316 262 255